Location: *
(50.8667°S, 179.2667°W)
Time: 02:29:59
(UTC+00:00)

Cosmos 1844 - Pass Details

Date: 02 October 2023
Orbit: 822 x 867 km, 70.9° (Epoch: 01 December)

Event Time Altitude Azimuth Distance (km) Brightness Sun altitude
Rises 16:36:30 0° 210° (SSW) 3,398 6.7 -8.0°
Reaches altitude 10° 16:38:57 10° 210° (SSW) 2,459 6.0 -7.7°
Maximum altitude 16:44:36 87° 120° (ESE) 844 3.8 -6.8°
Drops below altitude 10° 16:50:14 10° 30° (NNE) 2,445 6.3 -5.9°
Sets 16:52:40 0° 29° (NNE) 3,376 7.1 -5.6°
